FW5711 Weather Reports


Display with metric or nautical units.
time (UTC)temp
F
wind
direction
speed
MPH
gust
MPH
rain 1hr
in
rain 24hr
in
rain mn
in
humidity
%
barometer
mb
20260503003046 66 243 3.0 7.0 0.00 0.00 0.00 31 1015.8
20260503001540 67 248 4.0 8.0 0.00 0.00 0.00 31 1015.8
20260503000045 68 212 2.0 10.0 0.00 0.00 0.00 30 1015.7
20260502234552 68 323 3.0 5.0 0.00 0.00 0.00 30 1015.9
20260502233039 68 186 3.0 9.0 0.00 0.00 0.00 31 1016.1
20260502231538 67 69 5.0 11.0 0.00 0.00 0.00 32 1016.3
20260502230038 67 24 4.0 8.0 0.00 0.00 0.00 32 1016.5
20260502224537 67 46 6.0 10.0 0.00 0.00 0.00 32 1016.7
20260502223042 67 0 1.0 5.0 0.00 0.00 0.00 31 1017.0
20260502221539 68 0 3.0 8.0 0.00 0.00 0.00 31 1017.2
20260502220040 67 235 2.0 9.0 0.00 0.00 0.00 32 1017.4
20260502214552 68 319 5.0 9.0 0.00 0.00 0.00 32 1017.7
20260502213047 67 302 4.0 12.0 0.00 0.00 0.00 33 1017.9
20260502211550 67 293 5.0 12.0 0.00 0.00 0.00 34 1017.9
20260502210041 65 24 5.0 9.0 0.00 0.00 0.00 35 1018.0
20260502204541 64 57 5.0 11.0 0.00 0.00 0.00 36 1018.2
20260502203103 65 54 3.0 11.0 0.00 0.00 0.00 36 1018.3
20260502201542 63 9 5.0 12.0 0.00 0.00 0.00 37 1018.4
20260502200044 64 352 9.0 14.0 0.00 0.00 0.00 36 1018.7
20260502194536 64 352 5.0 15.0 0.00 0.00 0.00 37 1018.7
20260502193040 63 5 9.0 14.0 0.00 0.00 0.00 37 1018.9
20260502191544 64 352 6.0 13.0 0.00 0.00 0.00 36 1019.1
20260502190037 64 327 4.0 10.0 0.00 0.00 0.00 36 1019.2
20260502184537 64 91 3.0 11.0 0.00 0.00 0.00 36 1019.3
20260502183038 65 331 4.0 13.0 0.00 0.00 0.00 34 1019.4
20260502181536 64 360 5.0 12.0 0.00 0.00 0.00 36 1019.5
20260502163047 62 26 10.0 18.0 0.00 0.00 0.00 38 1019.8
20260502161554 62 47 6.0 17.0 0.00 0.00 0.00 39 1019.8
20260502151541 59 88 8.0 13.0 0.00 0.00 0.00 40 1019.5
20260502123100 47 5 5.0 8.0 0.00 0.00 0.00 54 1018.3
20260502121541 47 5 5.0 10.0 0.00 0.00 0.00 54 1018.2
20260502114537 50 10 7.0 13.0 0.00 0.00 0.00 49 1017.8
20260502113044 49 350 4.0 9.0 0.00 0.00 0.00 49 1017.5
20260502111543 49 9 4.0 8.0 0.00 0.00 0.00 47 1017.3
20260502110036 50 352 1.0 13.0 0.00 0.00 0.00 45 1017.0
20260502104541 48 187 0.0 4.0 0.00 0.00 0.00 44 1016.8
20260502103039 48 348 2.0 5.0 0.00 0.00 0.00 46 1016.5
20260502101540 45 360 3.0 7.0 0.00 0.00 0.00 49 1016.3
20260502070040 46 273 1.0 4.0 0.00 0.00 0.00 42 1015.4
20260502064547 45 286 1.0 4.0 0.00 0.00 0.00 43 1015.2
20260502063043 41 265 2.0 4.0 0.00 0.00 0.00 45 1015.2
20260502061538 43 251 2.0 4.0 0.00 0.00 0.00 41 1015.1
20260502060105 47 0 0.0 3.0 0.00 0.00 0.00 35 1015.0
20260502054538 48 284 0.0 2.0 0.00 0.00 0.00 35 1015.0
20260502053038 48 284 1.0 6.0 0.00 0.00 0.00 34 1014.7
20260502051537 49 276 2.0 4.0 0.00 0.00 0.00 32 1014.7
20260502050042 51 259 2.0 4.0 0.00 0.00 0.00 30 1014.5
20260502044543 53 264 3.0 7.0 0.00 0.00 0.00 29 1014.6
20260502043039 52 270 2.0 7.0 0.00 0.00 0.00 29 1014.6
20260502041537 52 264 3.0 6.0 0.00 0.00 0.00 27 1014.6
20260502040038 54 275 2.0 7.0 0.00 0.00 0.00 26 1014.6
20260502034537 55 268 4.0 6.0 0.00 0.00 0.00 25 1014.4
20260502033037 59 267 1.0 6.0 0.00 0.00 0.00 23 1014.3
20260502031540 59 286 2.0 6.0 0.00 0.00 0.00 23 1014.2
20260502030045 59 280 2.0 6.0 0.00 0.00 0.00 24 1014.0
20260502024539 60 269 3.0 7.0 0.00 0.00 0.00 24 1013.8
20260502023040 62 249 3.0 4.0 0.00 0.00 0.00 22 1013.9
20260502021538 65 250 2.0 4.0 0.00 0.00 0.00 20 1013.8
20260502020037 66 250 2.0 4.0 0.00 0.00 0.00 20 1013.8
20260502014538 69 250 3.0 5.0 0.00 0.00 0.00 19 1013.8
20260502013037 72 242 4.0 8.0 0.00 0.00 0.00 17 1013.8
20260502011543 74 238 2.0 8.0 0.00 0.00 0.00 17 1013.8
20260502010040 76 232 3.0 11.0 0.00 0.00 0.00 17 1014.0
20260502004538 76 259 6.0 11.0 0.00 0.00 0.00 15 1014.3